Location: Cahas Mountain Overlook
(37.0833°N, 80.1000°W)
Time: 12:09:16
(UTC-05:00)

Courier 1B - Pass Details

Date: 16 December 2023
Orbit: 962 x 1209 km, 28.3° (Epoch: 29 February)

Event Time Altitude Azimuth Distance (km) Brightness Sun altitude
Rises 09:02:23 0° 265° (W) 3,984 10.3 14.3°
Reaches altitude 10° 09:05:35 10° 255° (WSW) 2,984 9.8 14.8°
Maximum altitude 09:11:46 30° 197° (SSW) 1,808 9.5 15.7°
Drops below altitude 10° 09:17:38 10° 139° (SE) 2,821 12.8 16.4°
Sets 09:20:36 0° 129° (SE) 3,735 12.2 16.8°
